Location: Newark
(34.0131°N, 4.3314°W)
Time: 18:41:52
(UTC+00:00)

A-11 Canister half - Pass Details

Date: 30 October 2019
Orbit: 1514 x 1685 km, 47.2° (Epoch: 20 November)

Event Time Altitude Azimuth Distance (km) Brightness Sun altitude
Rises 08:19:21 0° 292° (WNW) 4,767 11.0 18.9°
Reaches altitude 10° 08:23:41 10° 276° (W) 3,748 10.6 19.7°
Maximum altitude 08:29:34 19° 236° (WSW) 3,083 10.5 20.7°
Drops below altitude 10° 08:35:24 10° 196° (SSW) 3,677 11.3 21.7°
Sets 08:39:38 0° 179° (S) 4,644 12.0 22.4°
